Theta_e
348 349 351 351 344 341 342 343 343 345 343 348 352 350 348 343 345 349 351 361 363 362 361 359 359 358 358 357 355 355 355 356 359 357 357 359 359 359 358 359 359 360 360
347 348 350 347 349 344 343 343 344 343 348 350 350 349 344 346 351 351 343 353 359 362 363 361 358 357 355 354 354 353 353 353 355 356 356 359 360 359 358 359 359 359 360
352 352 354 349 346 343 340 347 345 349 351 352 349 348 350 347 352 342 342 351 353 362 364 361 360 359 356 353 353 354 355 355 353 354 356 357 359 360 359 359 359 359 358
352 353 353 354 348 351 353 347 345 348 347 348 347 348 350 350 349 352 353 347 339 352 360 361 357 360 355 354 353 354 353 352 355 354 354 356 360 359 360 359 359 359 359
352 351 352 354 350 353 349 335 335 342 347 345 347 336 337 340 344 350 347 342 345 347 349 358 357 358 356 355 355 353 353 354 354 354 355 357 359 358 358 359 360 359 359
350 347 349 352 348 350 345 350 347 350 346 341 348 337 335 339 340 345 338 340 347 349 350 353 354 355 359 355 355 353 354 354 353 353 355 356 357 357 357 357 358 359 358
351 347 351 353 350 349 336 338 351 340 339 339 332 332 332 339 333 337 344 347 350 351 353 353 350 349 354 358 356 356 356 355 354 354 353 355 355 356 356 357 357 359 359
352 353 353 351 350 350 348 350 347 333 331 338 328 330 328 327 333 340 339 347 348 350 353 353 352 348 351 348 349 355 356 355 355 354 354 355 355 355 356 356 357 358 358
353 354 352 351 350 344 337 335 346 335 334 341 335 332 324 323 329 333 334 341 344 345 344 348 351 349 349 347 349 351 355 356 355 355 355 355 356 356 356 356 357 357 357
351 357 352 352 350 349 341 345 342 348 339 330 338 346 341 334 324 324 337 343 344 344 345 347 348 350 351 347 350 352 354 355 355 355 354 356 355 356 356 357 356 356 356
354 358 349 349 346 340 338 343 337 345 345 345 343 340 340 335 332 333 328 337 344 348 346 345 346 348 346 345 345 351 353 353 353 355 356 356 356 356 357 357 356 356 356
350 353 353 353 346 339 332 338 349 349 348 347 347 346 343 336 327 335 333 334 339 343 346 344 346 348 349 344 348 352 351 350 350 350 352 355 356 356 356 356 356 356 356
341 347 353 352 351 344 349 348 349 351 351 349 347 347 345 341 338 333 333 338 334 339 344 343 345 349 348 344 347 350 349 346 346 345 346 349 352 355 356 356 356 355 355
343 346 353 354 353 351 350 351 350 351 346 350 348 346 345 343 341 343 337 336 331 336 340 338 344 348 348 347 347 349 344 345 344 343 343 344 346 349 352 353 354 354 355
344 347 348 348 353 353 352 356 350 349 350 348 347 347 347 341 338 342 345 347 333 328 330 337 341 348 349 349 348 344 343 344 344 344 343 342 342 343 345 347 348 349 349
346 344 338 345 347 353 352 352 349 349 347 347 348 344 347 348 347 348 343 345 346 337 330 337 340 345 350 351 351 345 344 346 342 340 339 339 339 340 339 340 342 343 345
343 337 339 347 349 348 352 350 348 348 347 345 347 347 346 346 346 349 351 345 343 339 335 341 344 346 347 345 347 343 344 339 338 337 335 334 334 334 335 336 337 338 340
344 347 346 346 351 350 350 350 349 348 345 339 336 346 346 351 346 345 345 343 345 344 338 336 340 343 347 345 345 343 344 339 335 333 331 330 329 328 328 327 328 330 334
348 350 350 349 349 349 349 350 349 346 344 336 341 347 347 346 344 346 344 344 345 347 343 339 340 344 347 349 346 341 336 334 334 330 328 329 328 328 326 324 323 323 326
349 350 350 351 351 351 351 350 350 348 346 347 349 350 349 348 345 346 345 345 344 343 339 339 338 339 343 343 345 338 332 332 330 329 328 328 329 328 327 325 325 322 319
349 350 351 351 351 351 353 349 349 348 347 345 348 348 343 341 339 338 345 344 343 341 338 336 337 336 336 335 336 341 337 332 325 322 320 322 320 319 320 323 325 323 320
350 350 350 351 350 354 336 339 350 347 346 346 346 346 340 338 335 334 334 334 334 338 338 337 337 334 333 335 339 339 336 328 326 328 321 314 316 313 315 319 322 320 319
350 350 349 348 347 336 334 335 339 347 345 346 346 346 348 345 340 333 333 328 327 329 334 336 333 330 333 330 335 335 336 335 332 322 318 313 316 312 314 316 318 318 317
344 344 345 347 335 329 331 333 337 342 344 340 337 338 343 339 335 342 327 321 320 320 321 323 321 321 323 326 332 341 337 330 327 324 322 312 315 311 313 314 316 316 315
343 339 339 340 332 331 328 327 332 342 339 332 326 326 336 331 326 333 326 320 319 319 322 322 323 324 325 327 332 337 332 328 324 322 321 314 312 312 313 312 314 314 313
338 333 330 331 329 326 319 322 332 342 337 332 328 325 322 322 320 326 328 324 319 320 319 317 319 320 322 325 328 331 335 329 322 319 318 311 311 312 310 315 314 313 311
Wind_Speed
3 4 5 6 4 6 5 6 9 4 8 14 13 6 6 5 4 3 1 10 9 9 9 10 9 9 9 7 6 5 5 7 9 10 11 13 14 15 15 15 14 12 10
3 6 7 3 5 6 7 11 6 6 10 13 8 8 6 3 7 4 3 1 7 9 9 9 9 10 10 9 9 7 6 6 6 8 8 12 12 13 16 16 14 12 11
2 4 3 11 10 9 10 3 7 7 5 7 7 5 3 3 6 4 4 4 2 8 11 10 10 10 10 9 6 7 8 7 7 8 7 6 11 12 14 14 14 13 11
2 5 4 4 1 5 3 9 3 3 7 4 5 2 2 3 4 5 9 4 3 4 7 11 10 9 9 8 6 5 4 3 6 6 7 9 11 11 10 12 12 13 12
4 1 3 4 3 5 3 3 1 4 6 7 5 5 4 4 5 8 8 5 2 8 4 10 11 9 9 8 7 5 3 4 2 4 6 7 11 11 9 9 9 14 14
5 1 1 4 1 2 2 2 2 3 4 2 7 3 3 2 4 12 12 9 12 10 6 7 5 5 8 8 7 5 4 5 4 4 3 5 7 9 9 10 10 11 13
4 3 1 3 3 1 4 1 1 6 2 3 2 3 3 2 5 7 9 7 8 10 9 6 4 3 4 7 6 6 7 6 5 6 4 4 6 7 8 10 11 11 14
4 4 2 2 2 2 4 4 5 2 1 3 3 2 4 6 4 4 4 4 10 4 7 6 7 6 5 3 5 9 9 8 7 6 6 5 5 6 8 9 10 12 13
4 4 3 2 3 2 2 4 3 4 2 3 4 2 4 1 3 3 5 3 5 4 3 6 7 8 7 5 6 7 10 9 7 7 6 7 6 6 6 6 10 12 11
5 5 3 4 4 2 4 0 2 2 4 1 4 3 2 3 2 4 4 3 3 5 5 2 6 9 8 5 8 9 10 10 11 7 6 8 8 7 8 7 9 11 11
6 6 5 4 5 3 2 4 1 4 2 3 4 3 2 2 1 2 2 3 4 1 4 5 5 5 7 6 5 6 9 9 10 10 7 8 9 8 10 11 10 10 10
2 1 5 5 5 4 4 3 6 2 2 3 2 2 3 4 3 2 2 1 3 3 2 2 4 5 6 6 8 11 9 10 9 10 10 8 8 10 10 11 12 12 12
1 4 4 3 4 5 6 5 4 2 3 2 3 3 2 2 2 0 1 1 2 1 1 2 3 6 7 5 6 9 11 10 9 9 9 11 11 9 9 10 11 12 12
4 2 4 3 5 7 8 6 2 0 1 4 5 4 3 1 1 3 1 2 2 1 2 3 3 4 5 6 9 9 7 11 10 9 9 9 10 11 10 9 8 8 8
3 4 3 2 5 5 5 4 3 1 3 1 2 4 1 1 1 4 1 4 4 2 2 3 1 2 4 6 9 6 5 9 10 10 10 11 11 11 10 10 10 9 7
5 2 2 5 5 4 4 5 1 3 1 1 2 2 2 2 4 3 1 2 2 4 3 3 2 1 4 4 8 6 6 8 11 11 11 11 11 10 10 10 9 8 7
6 4 6 5 5 2 3 2 3 3 2 2 2 4 5 3 2 3 4 2 2 3 4 1 1 1 3 6 6 6 7 7 5 10 11 11 10 9 8 7 6 5 5
7 6 6 5 4 3 3 3 4 3 5 4 6 4 5 2 1 3 3 5 2 2 3 3 2 2 2 1 4 7 5 7 6 11 14 13 13 12 11 9 6 2 1
8 7 7 7 5 5 4 3 5 6 6 5 5 5 7 2 1 1 1 0 1 2 4 3 2 1 2 4 5 6 7 7 6 14 14 14 14 15 14 12 10 7 2
7 7 6 6 6 5 5 6 5 7 5 5 5 2 4 5 3 2 1 2 1 3 3 2 2 2 3 4 4 5 3 3 4 5 10 9 13 17 16 14 14 13 12
8 7 6 6 5 5 4 5 5 5 5 4 2 5 4 6 8 5 2 2 2 3 2 2 2 2 3 3 4 4 5 6 4 3 3 3 5 6 8 12 12 16 17
8 8 7 7 6 3 4 3 6 6 3 1 1 5 5 7 8 10 13 15 10 2 2 2 1 2 2 2 3 4 7 6 4 4 7 6 5 6 5 6 14 16 17
7 9 7 7 7 6 5 3 4 4 4 3 4 4 4 4 6 6 10 13 15 15 8 1 3 2 2 2 0 3 8 8 3 6 8 5 3 6 5 6 13 14 14
7 6 6 7 8 5 4 1 2 1 5 6 6 5 5 5 4 6 8 11 10 10 8 6 6 3 3 3 1 1 4 7 9 5 5 3 3 5 4 5 15 14 14
2 2 3 2 9 6 4 2 3 5 7 7 6 5 7 5 5 5 10 10 7 6 9 12 11 10 9 10 4 5 6 9 4 2 3 3 2 4 2 3 4 10 9
7 5 6 6 9 6 3 4 5 5 8 7 6 6 11 6 6 8 9 10 8 4 4 4 4 7 8 8 12 6 0 4 4 2 3 5 4 3 4 1 1 2 3
Wind_Direction
158 140 121 245 126 155 218 227 266 321 257 253 255 207 225 233 199 79 71 182 182 182 165 161 165 166 154 152 152 168 183 196 205 210 215 217 212 213 211 213 214 214 208
243 224 176 116 286 221 205 233 61 294 244 239 208 184 198 170 104 159 134 245 183 177 170 171 167 167 153 151 154 165 183 191 205 214 222 219 210 206 210 211 210 208 204
273 294 292 152 194 202 212 184 160 298 279 221 170 135 152 176 128 155 153 246 189 206 175 182 179 176 154 151 160 153 197 183 203 216 224 230 205 200 207 210 205 204 200
284 317 345 314 166 176 194 145 166 208 255 223 36 14 149 163 175 146 81 345 306 247 212 191 190 170 151 148 147 134 126 181 205 210 219 222 206 191 186 197 202 199 193
210 290 11 292 353 39 252 294 167 193 63 92 40 11 36 14 12 70 79 314 251 270 220 202 190 166 154 151 158 148 125 101 174 200 213 207 183 180 190 194 184 192 190
164 132 268 290 326 82 223 345 5 328 99 140 158 199 190 169 56 111 133 258 245 217 220 186 178 162 143 148 149 134 107 121 131 154 175 161 172 174 187 194 193 192 188
162 192 251 296 287 162 257 319 322 74 83 187 177 7 325 145 105 164 179 223 207 195 206 172 177 153 140 149 147 114 94 89 109 129 138 165 192 196 192 204 213 201 184
175 193 231 346 294 38 25 360 26 88 100 19 83 75 343 333 2 47 30 222 111 210 174 172 175 149 142 145 143 107 82 81 103 109 136 155 179 195 186 193 189 178 177
192 194 186 125 56 81 53 11 28 353 53 33 102 78 330 333 286 323 358 358 153 163 135 144 157 146 150 151 130 107 90 71 85 100 111 129 141 154 153 171 172 170 168
230 181 170 120 101 117 106 55 52 1 86 220 68 213 246 172 97 351 339 6 84 145 149 160 126 140 146 149 136 125 103 81 69 99 104 119 133 139 146 150 155 157 161
217 189 156 151 132 149 110 140 114 245 134 149 159 180 305 359 302 117 306 336 6 260 175 166 166 119 129 123 119 129 112 91 75 64 87 106 114 112 134 130 132 145 154
255 238 157 160 158 132 155 217 231 161 196 235 194 215 151 198 193 181 164 110 191 289 323 167 132 119 131 132 147 136 119 103 86 73 63 83 116 120 117 127 135 143 150
191 294 176 188 157 132 54 254 256 17 310 283 299 76 63 74 121 194 94 227 122 325 69 331 154 137 138 126 141 138 124 110 96 83 73 69 77 94 122 134 143 152 158
195 196 125 187 219 174 183 213 126 96 280 335 347 53 123 68 121 173 208 158 36 346 357 312 61 137 137 142 143 141 124 117 105 90 78 71 72 74 84 101 122 142 158
210 173 146 201 269 225 208 182 128 86 197 241 344 60 117 130 291 295 247 181 152 130 279 331 344 86 127 140 151 138 118 122 110 95 78 67 58 58 63 72 82 97 120
208 155 217 253 264 213 203 150 156 74 334 304 65 8 216 203 224 192 123 299 114 141 135 210 239 184 155 128 139 124 120 106 99 102 94 87 82 69 62 59 58 66 96
204 186 218 240 241 242 260 148 183 234 128 344 308 252 277 282 320 348 8 10 74 96 127 253 270 358 120 132 119 118 116 107 93 92 87 83 78 71 67 57 59 68 70
182 205 212 235 221 208 255 237 188 149 181 229 255 289 260 236 88 68 57 20 21 141 124 150 221 265 100 152 139 133 114 97 93 90 89 81 69 62 56 48 30 355 223
191 192 189 212 209 211 235 234 196 182 198 221 255 263 240 205 217 179 95 25 87 75 49 121 153 100 102 122 86 67 82 86 87 98 86 87 81 72 62 54 46 36 23
178 190 198 203 207 213 229 244 232 179 212 236 238 23 57 102 94 308 179 116 39 100 117 121 80 63 92 61 95 130 130 117 146 94 89 97 84 66 57 53 54 56 58
181 185 187 196 207 215 236 241 229 205 219 256 37 106 68 83 72 61 115 54 118 122 119 112 138 128 163 154 185 164 143 145 122 143 129 93 67 49 40 43 58 66 71
175 181 191 186 200 184 103 40 240 187 196 197 50 104 121 102 80 81 80 69 54 83 110 129 146 152 161 191 159 158 144 143 163 202 114 75 71 63 45 50 72 77 78
171 188 187 189 187 137 123 102 26 132 131 122 90 76 131 129 127 107 92 68 51 40 65 90 103 45 97 50 156 149 168 172 119 106 106 91 73 72 48 64 77 83 86
197 192 197 196 118 98 83 69 121 143 102 91 87 59 111 85 32 125 96 80 65 52 38 64 72 61 46 312 262 246 117 102 100 85 97 94 84 77 58 59 74 83 85
12 72 58 176 132 138 172 186 198 163 120 98 79 58 79 79 14 109 118 108 100 88 59 66 68 58 44 33 35 120 127 129 123 120 62 107 116 100 46 40 67 80 94
149 111 77 61 118 121 94 128 137 140 129 124 104 81 66 85 60 89 130 130 114 102 100 60 24 30 23 27 37 37 124 128 119 123 142 98 146 142 141 164 123 125 122